Simultaneous Nadir Overpasses (SNOs) Predictions

Prediction of SNOs near US between AQUA and NPP Satellite Orbit:

Table of predicted SNOs near US for the next 10.0 days since TLE Epoch: 6/10/2016
Index Date (AQUA) Time (AQUA) AQUA Lat,Lon Date (NPP) Time (NPP) NPP Lat,Lon Distance(km) Time Diff (sec)
1 06/11/2016 18:16:57 49.95, -80.18 06/11/2016 18:11:27 49.66, -81.72 114.95 330
2 06/11/2016 19:55:50 49.94,-104.90 06/11/2016 19:52:55 49.56,-107.05 160.23 175
3 06/11/2016 21:30:59 36.59,-124.98 06/11/2016 21:30:33 36.12,-127.54 234.83 26
4 06/14/2016 09:23:04 25.28,-113.02 06/14/2016 09:16:11 25.34,-113.42 40.21 413
5 06/17/2016 06:30:17 46.46, -65.03 06/17/2016 06:31:26 46.84, -67.01 156.53 69
6 06/17/2016 08:08:12 49.90, -88.39 06/17/2016 08:11:54 50.40, -90.86 184.75 222
7 06/17/2016 09:47:04
